EW0724 Weather Reports


time (UTC)temp
C
wind
direction
speed
KPH
gust
KPH
rain 1hr
cm
rain 24hr
cm
rain mn
cm
humidity
%
barometer
mb
20260509064546 11 192 0.0 4.8 0.00 0.20 0.00 100 1005.9
20260509063038 12 159 0.0 4.8 0.00 0.20 0.00 100 1006.1
20260509061522 12 154 0.0 4.8 0.00 0.20 0.00 100 1006.2
20260509060018 12 149 0.0 4.8 0.00 0.20 0.00 100 1006.3
20260509054512 12 155 0.0 0.0 0.00 0.20 0.00 100 1006.1
20260509053011 12 155 0.0 3.2 0.00 0.20 0.00 100 1006.2
20260509051504 12 157 0.0 0.0 0.00 0.20 0.00 100 1006.4
20260509050100 12 157 0.0 1.6 0.00 0.20 0.00 100 1006.2
20260509044555 12 157 0.0 1.6 0.00 0.20 0.00 100 1006.4
20260509043104 12 152 0.0 6.4 0.00 0.20 0.20 100 1006.4
20260509041548 12 151 0.0 4.8 0.00 0.20 0.20 100 1006.5
20260509040031 12 165 0.0 1.6 0.00 0.20 0.20 100 1006.5
20260509034526 12 163 0.0 0.0 0.00 0.20 0.20 100 1006.5
20260509033021 13 163 0.0 0.0 0.00 0.20 0.20 100 1006.6
20260509031517 13 163 0.0 0.0 0.00 0.20 0.20 100 1006.7
20260509030015 13 163 0.0 0.0 0.00 0.20 0.20 100 1006.7
20260509024509 13 163 0.0 0.0 0.00 0.20 0.20 100 1006.8
20260509023004 13 163 0.0 4.8 0.00 0.20 0.20 100 1006.8
20260509021548 13 166 0.0 1.6 0.00 0.20 0.20 100 1006.5
20260509020051 13 167 0.0 1.6 0.00 0.20 0.20 100 1006.6
20260509014539 14 171 0.0 4.8 0.00 0.20 0.20 3 1006.6
20260509013047 14 157 0.0 6.4 0.00 0.20 0.20 6 1006.7
20260509011532 14 191 3.2 8.0 0.00 0.20 0.20 11 1006.6
20260509010039 14 187 0.0 8.0 0.00 0.20 0.20 16 1006.6
20260509004526 14 223 3.2 9.7 0.00 0.20 0.20 21 1006.6
20260509003018 15 175 3.2 8.0 0.00 0.20 0.20 26 1006.6
20260509001501 15 155 3.2 12.9 0.00 0.20 0.20 26 1006.6
20260509000059 15 165 4.8 11.3 0.00 0.20 0.20 24 1006.7
20260508234552 15 219 4.8 12.9 0.00 0.20 0.20 22 1006.7
20260508233048 15 218 3.2 14.5 0.00 0.20 0.20 20 1006.7
20260508231545 15 145 3.2 12.9 0.00 0.20 0.20 19 1006.9
20260508230049 15 217 4.8 14.5 0.00 0.20 0.20 20 1006.8
20260508224541 15 197 4.8 14.5 0.00 0.20 0.20 24 1006.8
20260508223036 15 172 6.4 14.5 0.00 0.20 0.20 30 1006.9
20260508221523 15 98 4.8 17.7 0.00 0.20 0.20 32 1007.0
20260508220005 15 208 4.8 17.7 0.00 0.20 0.20 33 1006.9
20260508214546 15 156 6.4 17.7 0.00 0.20 0.20 36 1006.8
20260508213042 15 182 6.4 12.9 0.00 0.20 0.20 23 1006.9
20260508211537 15 193 8.0 19.3 0.00 0.20 0.20 20 1006.9
20260508210033 15 141 1.6 12.9 0.00 0.20 0.20 4 1007.1
20260508204529 15 186 4.8 17.7 0.03 0.20 0.20 9 1007.4
20260508203024 15 215 4.8 11.3 0.05 0.20 0.20 8 1007.4
20260508201522 15 161 4.8 9.7 0.08 0.20 0.20 4 1007.6
20260508200018 14 221 3.2 8.0 0.10 0.20 0.20 2 1007.7
20260508194513 14 158 3.2 12.9 0.08 0.18 0.18 12 1008.0
20260508193009 14 224 8.0 16.1 0.05 0.15 0.15 16 1008.2
20260508191508 14 217 4.8 9.7 0.03 0.13 0.13 22 1008.4
20260508190001 15 202 6.4 16.1 0.00 0.10 0.10 37 1008.5
20260508184558 15 201 8.0 20.9 0.00 0.10 0.10 46 1008.5
20260508183054 16 194 11.3 22.5 0.00 0.10 0.10 55 1008.7
20260508181553 16 212 6.4 12.9 0.00 0.10 0.10 60 1008.4
20260508180050 17 198 8.0 14.5 0.00 0.10 0.10 62 1008.6
20260508174544 17 257 4.8 17.7 0.00 0.10 0.10 62 1008.9
20260508173039 17 232 8.0 20.9 0.00 0.10 0.10 62 1009.1
20260508171535 16 196 6.4 22.5 0.00 0.10 0.10 61 1009.2
20260508170031 16 221 4.8 20.9 0.00 0.10 0.10 62 1009.3
20260508164520 16 150 11.3 24.1 0.00 0.10 0.10 62 1009.5
20260508163010 16 182 3.2 16.1 0.00 0.10 0.10 63 1009.8
20260508161510 15 208 3.2 17.7 0.00 0.10 0.10 62 1010.2
20260508160001 15 148 4.8 11.3 0.00 0.10 0.10 60 1010.2
20260508154600 14 200 4.8 12.9 0.00 0.10 0.10 60 1010.5
20260508153053 13 233 1.6 9.7 0.00 0.10 0.10 58 1010.5
20260508151548 13 107 4.8 12.9 0.00 0.10 0.10 50 1010.5
20260508150045 13 94 1.6 8.0 0.00 0.10 0.10 40 1010.6
20260508144540 12 147 1.6 11.3 0.00 0.10 0.10 34 1010.7
20260508143020 12 146 3.2 6.4 0.03 0.10 0.10 21 1010.8
20260508141516 11 197 1.6 8.0 0.05 0.10 0.10 15 1011.1
20260508134558 11 182 0.0 0.0 0.10 0.10 0.10 10 1011.5
20260508133051 11 152 0.0 3.2 0.08 0.08 0.08 14 1011.3
20260508131557 11 172 0.0 3.2 0.05 0.05 0.05 17 1011.5
20260508130108 11 246 1.6 8.0 0.00 0.00 0.00 20 1011.6
20260508124551 11 179 0.0 1.6 0.00 0.00 0.00 13 1011.0
20260508123048 11 188 0.0 0.0 0.00 0.00 0.00 14 1011.1
20260508121556 -17 0.0 0.0 0.00 0.00 0.00 1011.2
20260508120029 -17 0.0 0.0 0.00 0.00 0.00 1011.0
20260508114525 -17 0.0 0.0 0.00 0.00 0.00 1011.1
20260508113021 -17 0.0 0.0 0.00 0.00 0.00 1011.1
20260508111520 -17 0.0 0.0 0.00 0.00 0.00 1010.8
20260508110012 -17 0.0 0.0 0.00 0.00 0.00 1010.7
20260508104510 -17 0.0 0.0 0.00 0.00 0.00 1010.8
20260508103004 -17 0.0 0.0 0.00 0.00 0.00 1010.7
20260508101604 -17 0.0 0.0 0.00 0.00 0.00 1010.7
20260508100041 11 186 3.2 14.5 0.00 0.00 0.00 55 1010.7
20260508094546 11 196 3.2 9.7 0.00 0.00 0.00 53 1010.8
20260508093041 11 223 3.2 14.5 0.00 0.00 0.00 54 1010.8
20260508091540 11 223 4.8 17.7 0.00 0.00 0.00 57 1010.8
20260508090047 11 173 9.7 24.1 0.00 0.00 0.00 59 1010.9
20260508084539 11 227 6.4 16.1 0.00 0.00 0.00 60 1010.9
20260508083051 11 194 4.8 16.1 0.00 0.00 0.00 58 1011.1
20260508081549 11 185 4.8 11.3 0.00 0.00 0.00 56 1010.9
20260508080023 11 179 3.2 11.3 0.00 0.00 0.00 53 1010.8
20260508074521 11 187 1.6 9.7 0.00 0.00 0.00 52 1010.7
20260508073019 10 171 3.2 14.5 0.00 0.00 0.00 51 1010.9
20260508071514 10 151 4.8 11.3 0.00 0.00 0.00 47 1011.1
20260508070019 10 198 3.2 9.7 0.00 0.00 0.00 37 1011.2